Theta_e
287 287 288 287 286 287 286 288 284 288 289 292 296 299 301 304 306 315 319 322 324 325 328 329 328 328 329 329 330 330 329 330 330 331 331 330 330 331 331 330 330 333 333 332
284 287 287 284 287 288 288 288 288 289 289 296 299 301 301 303 305 314 319 322 324 327 328 328 328 328 328 328 329 330 329 329 330 330 330 330 330 330 330 329 332 332 331 330
280 285 285 281 286 288 289 291 290 286 291 296 297 299 301 305 308 310 322 322 325 328 329 329 328 329 327 328 330 330 329 330 330 330 329 328 329 328 329 331 331 328 331 328
281 283 274 286 294 293 292 294 296 293 294 296 297 301 304 307 308 315 324 327 329 330 329 330 331 330 329 329 330 330 329 329 330 329 328 328 328 329 330 332 328 328 329 327
280 279 283 286 291 291 291 291 297 296 296 298 299 302 303 310 317 321 326 330 331 331 331 331 330 330 329 329 330 330 329 329 329 328 327 327 327 330 332 329 327 328 329 327
283 278 276 289 294 296 296 287 299 298 297 298 299 294 301 316 322 323 328 331 331 331 331 331 331 330 328 329 330 329 330 330 329 328 328 328 329 330 332 333 328 328 327 328
281 280 284 293 294 295 284 291 302 303 302 300 298 302 313 320 321 323 327 330 331 331 329 331 331 330 328 328 328 331 332 331 330 330 329 330 331 331 331 332 329 329 327 328
284 281 279 293 292 288 296 301 298 301 306 307 308 310 316 319 321 322 324 328 329 329 330 331 329 329 328 328 331 331 331 330 330 330 328 329 330 331 331 331 329 328 327 327
285 285 292 291 288 294 298 296 297 299 309 312 312 313 317 317 320 323 325 327 330 329 329 329 329 329 328 330 330 329 330 329 330 330 329 330 330 330 328 330 329 326 326 325
286 288 286 296 299 295 294 294 298 306 308 311 311 314 314 317 321 323 324 326 329 329 327 327 328 328 330 329 330 330 330 329 327 329 329 330 330 330 329 328 327 326 325 325
290 292 295 296 297 301 303 304 304 305 308 311 313 313 314 316 319 322 323 325 328 328 328 327 327 328 329 329 329 330 330 330 330 330 329 330 330 328 331 332 325 327 327 327
289 297 295 295 300 300 301 301 302 302 305 308 310 311 314 314 315 318 319 323 323 326 327 327 326 327 327 328 330 330 329 329 328 329 329 329 328 325 296 301 300 301 305 316
297 300 299 301 301 302 301 301 302 301 302 305 307 311 312 312 314 311 316 319 320 322 324 324 324 324 326 327 329 330 330 330 329 326 329 329 328 327 325 312 295 295 297 299
301 300 296 298 297 301 301 301 302 302 302 302 303 307 309 309 311 312 312 312 313 314 316 318 318 317 321 325 327 329 331 309 330 329 330 330 328 327 328 326 326 326 300 301
300 300 299 300 299 298 298 300 299 299 299 300 302 303 305 304 305 306 310 310 310 310 310 312 314 313 316 319 326 327 328 328 329 330 330 326 329 326 327 326 325 327 322 305
300 301 300 298 298 296 297 297 297 297 299 299 300 301 302 303 303 304 304 306 304 305 306 310 311 313 315 317 324 327 328 310 316 330 329 329 328 327 324 325 324 325 327 327
298 297 298 297 296 295 295 296 297 297 298 296 298 300 301 301 299 299 300 302 302 302 302 304 307 313 314 316 319 326 327 327 312 329 329 329 329 328 327 324 323 324 326 324
302 301 301 299 297 295 294 296 296 296 296 296 298 298 297 296 296 296 297 299 301 300 298 301 302 309 312 310 316 322 325 327 326 327 329 329 329 329 329 328 326 325 325 320
303 301 301 299 298 296 295 295 294 295 295 296 296 295 295 296 296 296 297 296 297 295 295 298 296 302 309 304 303 322 323 323 324 326 327 317 327 329 329 329 329 328 327 323
302 302 301 300 299 297 295 296 295 295 295 296 295 294 293 293 295 296 294 291 291 293 295 296 300 301 304 307 303 319 321 321 321 322 322 324 326 327 328 313 325 329 329 327
301 301 300 299 298 297 296 296 295 294 294 295 294 293 292 292 292 292 292 290 289 291 292 292 296 298 304 302 306 311 314 316 315 316 319 322 325 325 324 322 323 323 325 326
301 301 300 300 298 297 297 296 296 295 294 293 293 293 292 292 293 290 290 289 289 288 290 291 292 288 297 296 303 304 306 307 307 307 307 308 309 310 309 312 314 314 316 320
302 301 301 300 299 297 297 296 295 294 294 293 293 292 291 290 290 290 288 290 290 288 290 290 287 286 288 298 297 297 298 300 300 300 301 301 301 304 303 303 306 308 306 307
303 302 302 301 300 298 295 295 295 294 294 293 293 293 294 291 290 291 291 289 287 288 288 288 288 286 289 293 293 293 293 294 295 296 296 293 296 297 298 298 299 300 300 301
303 303 302 301 299 297 296 296 295 295 294 294 293 293 293 293 292 292 292 291 287 289 289 287 287 288 292 291 291 291 291 291 290 292 292 292 293 294 295 296 295 294 295 295
303 302 302 303 301 299 298 297 295 295 295 293 293 294 293 293 293 293 291 290 291 289 291 290 290 292 291 291 291 291 290 291 291 290 291 291 291 292 292 293 293 293 294 294
304 299 302 301 301 300 299 297 296 294 294 295 293 293 293 292 292 291 290 291 291 291 290 290 290 289 290 291 290 290 290 290 288 291 291 291 291 292 292 293 293 293 293 293
Wind_Speed
13 15 14 16 20 19 16 14 11 12 25 21 16 17 20 17 18 12 1 4 7 9 10 12 14 14 14 13 12 11 12 11 10 10 10 10 10 9 8 7 6 6 6 5
14 15 16 22 20 20 20 18 17 18 32 20 21 18 19 18 17 11 4 7 8 9 12 14 13 13 13 13 11 11 11 11 10 10 10 9 9 8 8 7 6 7 5 5
11 11 12 17 23 24 20 17 17 21 26 21 19 17 18 16 14 14 7 9 11 13 13 13 14 12 12 11 10 10 10 10 9 9 10 8 9 8 7 6 8 6 5 5
5 5 10 8 3 3 10 14 16 21 26 22 21 20 18 15 17 15 9 13 13 13 13 13 13 12 11 11 10 9 9 9 9 9 10 8 8 8 7 5 6 5 5 5
4 6 14 20 2 1 6 14 10 22 24 19 16 16 21 18 16 12 10 12 13 14 15 14 13 12 12 10 9 8 8 9 10 10 10 8 8 7 6 6 5 5 5 4
5 5 6 2 7 1 3 12 12 18 19 17 16 13 12 10 8 6 9 12 13 14 15 14 13 12 11 10 9 8 8 9 10 9 9 9 8 7 5 6 7 5 6 4
11 8 8 2 5 2 4 3 9 4 12 17 16 13 8 6 5 5 8 13 14 14 14 14 13 12 12 10 10 7 8 9 10 8 8 7 7 5 6 6 7 5 5 4
7 6 9 6 4 8 3 7 8 13 10 14 15 14 10 8 6 7 11 14 16 14 13 13 13 12 12 10 8 8 9 10 9 8 6 6 7 6 6 6 7 6 5 4
3 3 10 14 14 16 18 15 15 15 12 9 13 12 10 6 5 6 12 13 14 14 14 12 13 12 12 9 9 9 9 8 8 8 7 6 6 7 5 5 6 5 4 4
4 2 13 17 7 16 15 15 16 3 3 3 5 5 2 3 4 4 13 13 13 15 14 13 12 12 11 10 10 10 10 9 6 7 7 6 5 5 4 4 5 5 5 4
5 4 11 17 18 14 10 11 11 10 10 8 9 8 4 5 5 6 11 6 10 12 14 15 14 12 10 10 11 10 9 8 8 6 6 7 5 3 2 2 1 5 4 5
5 11 8 11 13 16 14 14 13 11 13 15 11 10 9 8 9 10 11 6 7 7 9 12 13 12 10 10 11 10 9 7 6 6 6 5 6 5 10 8 3 4 4 2
8 6 10 13 11 13 13 10 12 12 12 15 14 12 13 11 11 10 13 14 11 5 6 9 9 8 10 10 10 10 8 8 6 5 6 6 6 6 7 5 9 9 5 4
11 9 7 12 8 11 10 12 11 14 13 13 14 14 14 11 11 11 17 15 17 14 13 11 11 8 6 6 8 9 8 7 7 7 7 6 6 6 5 6 6 6 8 6
9 7 5 8 10 14 15 12 14 14 13 13 13 14 13 12 10 13 14 16 15 16 16 13 12 11 8 3 6 6 6 6 7 6 7 6 5 5 5 4 5 7 7 5
8 10 11 10 12 14 15 15 13 14 12 11 13 13 12 11 12 15 13 17 18 14 14 14 13 11 9 6 3 5 5 3 3 5 6 8 7 6 6 5 5 6 7 8
6 9 8 9 10 12 14 12 12 11 11 13 12 10 10 13 15 16 17 17 16 15 14 13 12 11 11 8 5 1 4 5 4 5 5 6 7 7 6 6 5 5 6 8
7 4 7 8 8 10 10 12 12 12 12 12 11 12 13 15 17 16 18 14 9 11 15 13 14 11 10 12 8 3 2 5 5 5 5 6 6 6 6 6 6 6 6 6
6 7 7 8 8 10 10 11 12 11 11 10 13 14 14 14 15 13 11 10 11 11 13 14 14 11 10 13 10 5 4 4 5 4 3 2 4 5 5 6 6 6 5 6
10 8 8 8 9 9 10 12 11 12 11 11 12 13 14 15 13 11 12 14 12 8 12 15 12 10 10 13 11 8 7 7 8 7 4 3 1 1 2 2 4 4 4 5
10 9 8 8 8 9 9 9 10 12 11 11 12 11 13 14 14 11 11 10 13 12 11 13 12 9 9 9 9 9 8 7 10 10 9 8 8 8 7 5 4 3 3 3
10 8 8 8 8 9 9 9 11 11 12 12 13 12 12 13 12 13 14 10 8 14 10 10 10 13 9 10 11 11 9 8 9 10 10 9 9 9 10 9 10 10 10 10
9 9 8 7 8 9 9 10 10 11 12 12 12 12 12 10 9 7 8 11 9 12 10 10 12 13 12 12 11 11 11 12 12 11 11 10 10 9 9 10 10 10 10 10
10 11 10 8 7 7 9 9 9 10 11 11 12 10 8 8 9 8 9 9 9 12 12 11 12 11 12 10 11 12 12 12 11 11 11 14 10 10 10 11 10 10 10 11
13 10 13 13 10 6 7 7 8 8 8 10 11 10 11 9 9 8 8 9 13 12 12 13 14 13 12 12 12 12 12 12 11 11 11 13 11 10 10 10 10 10 10 10
14 11 9 8 8 8 7 6 6 5 5 6 7 7 7 7 7 8 9 11 12 12 12 13 13 13 13 13 14 14 13 12 12 12 12 11 11 10 10 11 11 11 11 11
9 10 9 8 7 7 6 5 6 6 5 6 7 7 7 8 8 9 9 10 11 12 11 11 12 14 13 13 13 13 12 13 15 13 13 13 12 12 12 12 12 11 11 12
Wind_Direction
252 268 271 270 273 271 253 244 256 263 258 271 295 308 315 314 324 339 274 175 155 154 149 143 137 135 132 130 130 132 125 122 121 123 127 132 134 137 136 140 138 133 128 125
246 256 260 269 260 254 254 252 247 253 264 273 282 285 298 304 314 331 238 188 162 161 155 149 145 141 138 137 136 134 127 127 128 131 137 139 134 138 144 141 141 123 131 104
253 258 272 270 252 244 244 239 239 240 256 264 266 271 282 298 302 309 240 189 175 170 163 157 151 148 147 144 141 137 136 132 140 142 145 144 140 144 145 148 126 137 128 103
263 246 253 263 167 279 243 249 244 240 246 249 252 260 273 284 282 287 232 196 182 170 163 161 154 154 146 149 150 144 143 147 145 149 144 148 155 152 146 139 140 147 123 102
224 222 284 290 301 342 281 267 236 227 237 243 249 269 276 273 259 253 229 197 183 171 167 159 162 154 156 159 155 157 154 152 155 150 148 153 160 153 140 136 136 153 126 106
194 236 250 133 161 45 333 273 233 229 231 237 239 250 272 288 218 215 220 189 173 168 163 164 162 156 163 162 166 172 161 154 152 152 154 166 158 150 137 145 142 147 111 87
219 242 274 140 75 292 245 26 337 297 242 237 236 235 295 288 224 204 209 182 166 163 163 168 160 159 173 168 177 163 154 144 151 150 159 148 139 155 153 147 131 134 112 102
222 238 256 54 323 220 333 318 319 309 271 252 253 250 260 266 265 209 187 173 166 163 165 162 162 164 173 184 160 156 153 147 151 153 160 152 155 140 152 151 142 139 134 122
259 274 307 285 235 249 275 297 291 295 283 251 236 226 210 241 267 204 188 170 165 160 156 164 167 173 178 172 162 142 158 146 152 156 153 149 152 144 155 165 146 160 163 144
293 254 299 331 25 219 246 252 266 6 58 128 127 161 154 237 296 170 170 161 164 156 159 163 174 181 184 164 160 158 155 144 152 155 149 146 147 153 159 171 163 168 167 154
307 298 327 6 6 24 45 48 47 45 56 78 82 84 80 53 43 82 91 137 163 167 170 171 172 183 168 164 158 164 156 154 156 146 163 143 113 91 129 136 164 167 168 157
335 349 2 343 13 359 17 23 23 41 58 57 64 70 75 63 54 59 84 91 111 146 176 166 173 174 166 164 163 160 156 167 168 156 159 152 143 130 55 35 22 70 120 135
346 2 20 351 15 357 9 11 27 32 46 56 51 56 61 69 60 72 80 72 63 100 138 152 154 170 160 161 164 170 168 170 166 175 166 159 160 157 143 77 60 51 75 102
20 18 19 26 6 352 4 19 34 32 37 39 44 50 60 60 59 69 69 71 69 61 69 85 100 88 73 162 177 177 176 169 183 182 179 169 165 166 158 156 154 139 59 47
47 63 45 38 27 15 13 29 44 39 28 37 37 52 58 64 66 70 76 80 75 67 53 52 56 48 38 49 189 179 174 182 197 185 184 170 162 164 171 158 150 142 135 100
46 48 53 48 38 29 26 24 37 38 32 35 42 37 51 69 74 69 68 67 61 55 44 42 37 25 32 33 181 175 181 131 206 189 168 182 175 174 175 175 170 157 170 151
41 38 38 41 34 35 32 31 38 34 34 37 36 45 43 45 44 40 51 51 53 51 38 34 14 14 31 35 31 151 182 157 191 190 192 192 195 197 187 187 188 179 173 166
89 36 61 57 40 52 48 49 45 41 34 32 41 45 46 40 50 36 41 27 30 37 29 21 9 357 24 32 2 33 212 181 178 193 186 191 196 202 206 210 207 199 180 147
93 93 69 67 47 48 51 56 58 58 57 46 47 50 54 55 58 56 58 54 39 31 11 10 1 2 7 21 8 40 69 137 143 160 185 169 189 206 212 218 219 218 211 170
109 99 89 76 62 49 55 58 59 60 57 63 67 57 59 61 58 61 60 53 36 16 3 8 12 15 355 17 10 27 50 71 80 81 83 110 116 207 229 236 277 250 224 228
122 112 102 92 75 66 54 61 73 67 67 71 71 67 65 64 55 47 50 43 17 8 20 19 21 14 21 11 39 35 30 47 69 58 53 54 59 62 58 51 41 22 347 308
140 129 121 112 97 82 63 55 60 70 74 75 70 74 74 65 68 67 50 41 21 7 27 27 19 7 21 26 51 47 34 45 61 62 49 43 47 46 47 48 47 44 36 32
147 139 135 126 105 92 77 67 62 64 65 63 73 73 67 67 58 58 55 31 42 28 40 31 4 12 26 49 49 51 44 42 50 54 61 48 43 42 43 41 43 39 35 37
157 150 140 132 120 103 92 81 74 65 69 66 64 65 77 84 71 69 71 55 53 54 47 30 30 26 47 57 56 53 46 42 46 44 54 56 43 43 40 35 36 35 35 26
159 156 150 154 140 123 114 109 102 89 79 76 75 67 63 55 68 68 65 61 44 59 55 38 41 43 51 51 52 54 52 49 37 47 43 52 43 41 39 40 40 35 36 29
159 169 176 171 137 143 146 153 116 109 102 87 74 75 78 75 74 75 72 67 62 56 62 58 49 55 53 49 52 53 51 45 49 49 51 47 43 44 40 38 37 34 32 28
166 145 149 146 150 152 152 139 132 125 118 109 101 83 83 81 71 71 61 62 60 60 53 53 54 56 56 51 50 49 49 56 45 47 51 50 44 42 41 39 40 36 32 31